| time (UTC) | temp F | wind direction | speed knots | gust knots | rain 1hr in | rain 24hr in | rain mn in | humidity % | barometer mb |
| 20260505200338 | 80 | 248 | 5.2 | 5.2 | 0.00 | 0.06 | 0.00 | 23 | 1002.7 |
| 20260505193337 | 79 | 268 | 5.2 | 10.4 | 0.00 | 0.06 | 0.00 | 24 | 1002.9 |
| 20260505190336 | 80 | 285 | 4.3 | 7.0 | 0.00 | 0.06 | 0.00 | 23 | 1003.0 |
| 20260505183336 | 80 | 291 | 5.2 | 7.8 | 0.00 | 0.06 | 0.00 | 23 | 1003.1 |
| 20260505180334 | 80 | 297 | 5.2 | 9.6 | 0.00 | 0.06 | 0.00 | 22 | 1003.3 |
| 20260505173333 | 79 | 314 | 6.1 | 10.4 | 0.00 | 0.06 | 0.00 | 21 | 1003.5 |
| 20260505163331 | 77 | 340 | 6.1 | 11.3 | 0.00 | 0.06 | 0.00 | 23 | 1003.8 |
| 20260505160330 | 77 | 317 | 7.8 | 13.0 | 0.00 | 0.06 | 0.00 | 23 | 1003.8 |
| 20260505153329 | 75 | 320 | 6.1 | 10.4 | 0.00 | 0.06 | 0.00 | 25 | 1003.9 |
| 20260505150328 | 73 | 306 | 6.1 | 11.3 | 0.00 | 0.06 | 0.00 | 29 | 1004.4 |
| 20260505140326 | 68 | 303 | 7.8 | 12.2 | 0.00 | 0.06 | 0.00 | 38 | 1004.9 |
| 20260505123323 | 64 | 259 | 5.2 | 8.7 | 0.00 | 0.06 | 0.00 | 45 | 1004.8 |
| 20260505120322 | 62 | 235 | 3.5 | 4.3 | 0.00 | 0.06 | 0.00 | 50 | 1005.0 |
| 20260505113321 | 64 | 304 | 0.9 | 2.6 | 0.00 | 0.06 | 0.00 | 43 | 1004.2 |
| 20260505110320 | 63 | 319 | 2.6 | 4.3 | 0.00 | 0.06 | 0.00 | 46 | 1004.7 |
| 20260505100318 | 64 | 255 | 7.0 | 9.6 | 0.00 | 0.06 | 0.00 | 42 | 1003.6 |
| 20260505093317 | 64 | 250 | 5.2 | 7.8 | 0.00 | 0.06 | 0.00 | 43 | 1003.7 |
| 20260505090316 | 65 | 276 | 4.3 | 8.7 | 0.00 | 0.06 | 0.00 | 38 | 1003.6 |
| 20260505083315 | 63 | 248 | 2.6 | 5.2 | 0.00 | 0.06 | 0.00 | 44 | 1003.8 |
| 20260505074014 | 63 | 340 | 5.2 | 7.8 | 0.00 | 0.06 | 0.00 | 44 | 1004.1 |
| 20260505071013 | 66 | 274 | 3.5 | 5.2 | 0.00 | 0.06 | 0.00 | 37 | 1003.7 |
| 20260505064012 | 67 | 255 | 3.5 | 5.2 | 0.00 | 0.06 | 0.00 | 34 | 1003.5 |
| 20260505061011 | 68 | 253 | 3.5 | 5.2 | 0.00 | 0.06 | 0.00 | 33 | 1003.6 |
| 20260505054010 | 69 | 258 | 2.6 | 4.3 | 0.00 | 0.06 | 0.00 | 32 | 1003.7 |
| 20260505051009 | 69 | 250 | 2.6 | 4.3 | 0.00 | 0.06 | 0.00 | 30 | 1003.4 |